{"data":{"norad_id":65774,"intl_designator":"2025-217N","name":"KUIPER-00155","alt_names":[],"object_type":"PAYLOAD","status":"ACTIVE","operator":null,"country":"US","launch_date":"2025-09-25","launch_site_code":"AFETR","launch_vehicle":null,"mission":null,"orbit_class":"UNKNOWN","rcs_meters":null,"size_class":null,"mass_kg":null,"dimensions":null,"purposes":[],"wikipedia_slug":null,"has_3d_model":false,"image_url":null,"decayed_at":null,"tle_current":{"epoch":"2026-05-24T21:43:53.942016Z","epoch_age_seconds":93516,"freshness":"FRESH","line1":"1 65774U 25217N   26144.90548544 -.00001490  00000+0 -16650-3 0  9998","line2":"2 65774  51.9043  21.1030 0001023 127.6143 232.4912 14.79934854 36792","mean_motion":14.79934854,"eccentricity":0.0001023,"inclination_deg":51.9043,"raan_deg":21.103,"arg_perigee_deg":127.6143,"mean_anomaly_deg":232.4912,"bstar":-0.0001665,"rev_number":3679,"period_min":97.301580276182,"perigee_km":628.81289225128,"apogee_km":630.24666087377,"semimajor_km":7007.6667765625,"source":"CELESTRAK","updated_at":"2026-05-25T13:38:05.662135Z"}}}